START_TIME,STEP,MOV.,M6,t_acc.,M7,t_acc.,M19,t_acc.,H36,t_acc.
1986-01-25 15:00:28.480 ,7,0,0.,12.0,0.,12.0,0.,12.0,0.,12.0
1986-01-25 15:00:40.480 ,7,0,0.,12.0,0.,12.0,0.,12.0,0.,12.0
1986-01-25 15:00:52.480 ,6,1,0.,12.0,0.,12.0,0.,12.0,0.,12.0
1986-01-25 15:01:04.480 ,6,1,0.,12.0,0.,12.0,0.,12.0,0.,12.0
1986-01-25 15:01:16.480 ,6,0,0.,12.0,0.,12.0,0.,12.0,0.,12.0
1986-01-25 15:01:28.480 ,6,0,0.,12.0,0.,12.0,0.,12.0,0.,12.0
1986-01-25 15:01:40.480 ,5,1,0.,12.0,0.,12.0,0.,12.0,0.,12.0
1986-01-25 15:01:52.480 ,5,1,0.,12.0,0.,12.0,0.,12.0,0.,12.0
1986-01-25 15:02:04.480 ,5,0,0.,12.0,0.,12.0,0.,12.0,0.,12.0
1986-01-25 15:02:16.480 ,5,0,0.,12.0,0.,12.0,0.,12.0,0.,12.0
1986-01-25 15:02:28.480 ,4,1,0.,12.0,0.,12.0,0.,12.0,0.,12.0
1986-01-25 15:02:40.480 ,4,1,0.,12.0,0.,12.0,0.,12.0,0.,12.0
1986-01-25 15:02:52.480 ,4,0,0.,12.0,0.,12.0,0.,12.0,0.,12.0
1986-01-25 15:03:04.480 ,4,0,0.,12.0,0.,12.0,0.,12.0,0.,12.0
1986-01-25 15:03:16.480 ,3,1,0.,12.0,0.,12.0,0.,12.0,0.,12.0
1986-01-25 15:03:28.480 ,3,1,0.,12.0,0.,12.0,0.,12.0,0.,12.0
1986-01-25 15:03:40.480 ,3,0,0.,12.0,0.,12.0,0.,12.0,0.,12.0
1986-01-25 15:03:52.480 ,3,0,0.,12.0,0.,12.0,0.,12.0,0.,12.0
1986-01-25 15:04:04.480 ,2,1,0.,12.0,0.,12.0,0.,12.0,0.,12.0
1986-01-25 15:04:16.480 ,2,1,0.,12.0,0.,12.0,0.,12.0,0.,12.0
1986-01-25 15:04:28.480 ,2,0,0.,12.0,0.,12.0,0.,12.0,0.,12.0
1986-01-25 15:04:40.480 ,2,0,0.,12.0,0.,12.0,0.,12.0,0.,12.0
1986-01-25 15:04:52.480 ,1,1,0.,12.0,0.,12.0,0.,12.0,0.,12.0
1986-01-25 15:05:04.480 ,1,1,0.,12.0,0.,12.0,0.,12.0,0.,12.0
1986-01-25 15:05:16.480 ,1,0,0.,12.0,0.,12.0,0.,12.0,0.,12.0
1986-01-25 15:05:28.480 ,1,0,0.,12.0,0.,12.0,0.,12.0,0.,12.0
1986-01-25 15:05:40.480 ,0,1,0.,12.0,0.,12.0,0.,12.0,0.,12.0
1986-01-25 15:05:52.480 ,0,1,0.,12.0,0.,12.0,0.,12.0,0.,12.0
1986-01-25 15:06:04.480 ,0,0,0.,12.0,0.,12.0,0.,12.0,0.,12.0
1986-01-25 15:06:16.480 ,0,0,1.,12.0,0.,12.0,0.,12.0,0.,12.0
1986-01-25 15:06:28.480 ,0,1,0.,12.0,0.,12.0,0.,12.0,0.,12.0
1986-01-25 15:06:40.480 ,0,1,0.,12.0,0.,12.0,0.,12.0,0.,12.0
1986-01-25 15:06:52.480 ,0,0,0.,12.0,0.,12.0,0.,12.0,0.,12.0
1986-01-25 15:07:04.480 ,0,0,0.,12.0,0.,12.0,0.,12.0,0.,12.0
1986-01-25 15:07:16.480 ,1,1,0.,12.0,0.,12.0,0.,12.0,0.,12.0
1986-01-25 15:07:28.480 ,1,1,0.,12.0,0.,12.0,0.,12.0,0.,12.0
1986-01-25 15:07:40.480 ,1,0,0.,12.0,0.,12.0,0.,12.0,0.,12.0
1986-01-25 15:07:52.480 ,1,0,0.,12.0,0.,12.0,0.,12.0,0.,12.0
1986-01-25 15:08:04.480 ,2,1,0.,12.0,0.,12.0,0.,12.0,0.,12.0
1986-01-25 15:08:16.480 ,2,1,0.,12.0,0.,12.0,0.,12.0,0.,12.0
1986-01-25 15:08:28.480 ,2,0,0.,12.0,0.,12.0,0.,12.0,0.,12.0
1986-01-25 15:08:40.480 ,2,0,0.,12.0,0.,12.0,0.,12.0,0.,12.0
1986-01-25 15:08:52.480 ,3,1,0.,12.0,0.,12.0,0.,12.0,0.,12.0
1986-01-25 15:09:04.480 ,3,1,0.,12.0,0.,12.0,0.,12.0,0.,12.0
1986-01-25 15:09:16.480 ,3,0,0.,12.0,0.,12.0,0.,12.0,0.,12.0
1986-01-25 15:09:28.480 ,3,0,0.,12.0,0.,12.0,0.,12.0,0.,12.0
1986-01-25 15:09:40.480 ,4,1,0.,12.0,0.,12.0,0.,12.0,0.,12.0
1986-01-25 15:09:52.480 ,4,1,0.,12.0,0.,12.0,0.,12.0,0.,12.0
1986-01-25 15:10:04.480 ,4,0,0.,12.0,0.,12.0,0.,12.0,0.,12.0
1986-01-25 15:10:16.480 ,4,0,0.,12.0,0.,12.0,0.,12.0,0.,12.0
1986-01-25 15:10:28.480 ,5,1,0.,12.0,0.,12.0,0.,12.0,0.,12.0
1986-01-25 15:10:40.480 ,5,1,0.,12.0,0.,12.0,0.,12.0,0.,12.0
1986-01-25 15:10:52.480 ,5,0,0.,12.0,0.,12.0,0.,12.0,0.,12.0
1986-01-25 15:11:04.480 ,5,0,0.,12.0,0.,12.0,0.,12.0,0.,12.0
1986-01-25 15:11:16.480 ,6,1,0.,12.0,0.,12.0,0.,12.0,0.,12.0
1986-01-25 15:11:28.480 ,6,1,0.,12.0,0.,12.0,0.,12.0,0.,12.0
1986-01-25 15:11:40.480 ,6,0,0.,12.0,0.,12.0,0.,12.0,0.,12.0
1986-01-25 15:11:52.480 ,6,0,0.,12.0,0.,12.0,0.,12.0,0.,12.0
1986-01-25 15:12:04.480 ,7,1,0.,12.0,0.,12.0,0.,12.0,0.,12.0
1986-01-25 15:12:16.480 ,7,1,0.,12.0,0.,12.0,0.,12.0,0.,12.0
1986-01-25 15:12:28.480 ,7,0,0.,12.0,0.,12.0,0.,12.0,0.,12.0
1986-01-25 15:12:40.480 ,7,0,0.,12.0,0.,12.0,0.,12.0,0.,12.0
1986-01-25 15:12:52.480 ,7,1,0.,12.0,0.,12.0,0.,12.0,0.,12.0
1986-01-25 15:13:04.480 ,7,1,0.,12.0,0.,12.0,0.,12.0,0.,12.0
1986-01-25 15:13:16.480 ,7,0,0.,12.0,0.,12.0,0.,12.0,0.,12.0
1986-01-25 15:13:28.480 ,7,0,0.,12.0,0.,12.0,0.,12.0,0.,12.0
1986-01-25 15:13:40.480 ,6,1,0.,12.0,0.,12.0,0.,12.0,0.,12.0
1986-01-25 15:13:52.480 ,6,1,0.,12.0,0.,12.0,0.,12.0,0.,12.0
1986-01-25 15:14:04.480 ,6,0,0.,12.0,0.,12.0,0.,12.0,0.,12.0
1986-01-25 15:14:16.480 ,6,0,0.,12.0,0.,12.0,0.,12.0,0.,12.0
1986-01-25 15:14:28.480 ,5,1,0.,12.0,0.,12.0,0.,12.0,0.,12.0
1986-01-25 15:14:40.480 ,5,1,0.,12.0,0.,12.0,0.,12.0,0.,12.0
1986-01-25 15:14:52.480 ,5,0,0.,12.0,0.,12.0,0.,12.0,0.,12.0
1986-01-25 15:15:04.480 ,5,0,0.,12.0,0.,12.0,0.,12.0,0.,12.0
1986-01-25 15:15:16.480 ,4,1,0.,12.0,0.,12.0,0.,12.0,0.,12.0
1986-01-25 15:15:28.480 ,4,1,0.,12.0,0.,12.0,0.,12.0,0.,12.0
1986-01-25 15:15:40.480 ,4,0,0.,12.0,0.,12.0,0.,12.0,0.,12.0
1986-01-25 15:15:52.480 ,4,0,0.,12.0,0.,12.0,0.,12.0,0.,12.0
1986-01-25 15:16:04.480 ,3,1,0.,12.0,0.,12.0,0.,12.0,0.,12.0
1986-01-25 15:16:16.480 ,3,1,0.,12.0,0.,12.0,0.,12.0,0.,12.0
1986-01-25 15:16:28.480 ,3,0,0.,12.0,0.,12.0,0.,12.0,0.,12.0
1986-01-25 15:16:40.480 ,3,0,0.,12.0,0.,12.0,0.,12.0,0.,12.0
1986-01-25 15:16:52.480 ,2,1,0.,12.0,0.,12.0,0.,12.0,0.,12.0
1986-01-25 15:17:04.480 ,2,1,0.,12.0,0.,12.0,0.,12.0,0.,12.0
1986-01-25 15:17:16.480 ,2,0,0.,12.0,0.,12.0,0.,12.0,0.,12.0
1986-01-25 15:17:28.480 ,2,0,0.,12.0,0.,12.0,0.,12.0,0.,12.0
1986-01-25 15:17:40.480 ,1,1,0.,12.0,0.,12.0,0.,12.0,0.,12.0
1986-01-25 15:17:52.480 ,1,1,0.,12.0,0.,12.0,0.,12.0,0.,12.0
1986-01-25 15:18:04.480 ,1,0,0.,12.0,0.,12.0,0.,12.0,0.,12.0
1986-01-25 15:18:16.480 ,1,0,0.,12.0,0.,12.0,0.,12.0,0.,12.0
1986-01-25 15:18:28.480 ,0,1,0.,12.0,0.,12.0,0.,12.0,0.,12.0
1986-01-25 15:18:40.480 ,0,1,0.,12.0,0.,12.0,0.,12.0,0.,12.0
1986-01-25 15:18:52.480 ,0,0,0.,12.0,0.,12.0,0.,12.0,0.,12.0
1986-01-25 15:19:04.480 ,0,0,0.,12.0,0.,12.0,0.,12.0,0.,12.0
1986-01-25 15:19:16.480 ,0,1,0.,12.0,0.,12.0,0.,12.0,0.,12.0
1986-01-25 15:19:28.480 ,0,1,0.,12.0,0.,12.0,0.,12.0,0.,12.0
1986-01-25 15:19:40.480 ,0,0,0.,12.0,0.,12.0,0.,12.0,0.,12.0
1986-01-25 15:19:52.480 ,0,0,0.,12.0,0.,12.0,0.,12.0,0.,12.0
1986-01-25 15:20:04.480 ,1,1,0.,12.0,0.,12.0,0.,12.0,0.,12.0
1986-01-25 15:20:16.480 ,1,1,0.,12.0,0.,12.0,0.,12.0,0.,12.0
1986-01-25 15:20:28.480 ,1,0,0.,12.0,0.,12.0,0.,12.0,0.,12.0
1986-01-25 15:20:40.480 ,1,0,0.,12.0,0.,12.0,0.,12.0,0.,12.0
1986-01-25 15:20:52.480 ,2,1,0.,12.0,0.,12.0,0.,12.0,0.,12.0
1986-01-25 15:21:04.480 ,2,1,0.,12.0,0.,12.0,0.,12.0,0.,12.0
1986-01-25 15:21:16.480 ,2,0,0.,12.0,0.,12.0,0.,12.0,0.,12.0
1986-01-25 15:21:28.480 ,2,0,0.,12.0,0.,12.0,0.,12.0,0.,12.0
1986-01-25 15:21:40.480 ,3,1,0.,12.0,0.,12.0,0.,12.0,0.,12.0
1986-01-25 15:21:52.480 ,3,1,0.,12.0,0.,12.0,0.,12.0,0.,12.0
1986-01-25 15:22:04.480 ,3,0,0.,12.0,0.,12.0,0.,12.0,0.,12.0
1986-01-25 15:22:16.480 ,3,0,0.,12.0,0.,12.0,0.,12.0,0.,12.0
1986-01-25 15:22:28.480 ,4,1,0.,12.0,0.,12.0,0.,12.0,0.,12.0
1986-01-25 15:22:40.480 ,4,1,0.,12.0,0.,12.0,0.,12.0,0.,12.0
1986-01-25 15:22:52.480 ,4,0,0.,12.0,0.,12.0,0.,12.0,0.,12.0
1986-01-25 15:23:04.480 ,4,0,0.,12.0,0.,12.0,0.,12.0,0.,12.0
1986-01-25 15:23:16.480 ,5,1,0.,12.0,0.,12.0,0.,12.0,0.,12.0
1986-01-25 15:23:28.480 ,5,1,0.,12.0,0.,12.0,0.,12.0,0.,12.0
1986-01-25 15:23:40.480 ,5,0,0.,12.0,0.,12.0,0.,12.0,0.,12.0
1986-01-25 15:23:52.480 ,5,0,0.,12.0,0.,12.0,0.,12.0,0.,12.0
1986-01-25 15:24:04.480 ,6,1,0.,12.0,0.,12.0,0.,12.0,0.,12.0
1986-01-25 15:24:16.480 ,6,1,0.,12.0,0.,12.0,0.,12.0,0.,12.0
1986-01-25 15:24:28.480 ,6,0,0.,12.0,0.,12.0,0.,12.0,0.,12.0
1986-01-25 15:24:40.480 ,6,0,0.,12.0,0.,12.0,0.,12.0,0.,12.0
1986-01-25 15:24:52.480 ,7,1,0.,12.0,0.,12.0,0.,12.0,0.,12.0
1986-01-25 15:25:04.480 ,7,1,0.,12.0,0.,12.0,0.,12.0,0.,12.0
1986-01-25 15:25:16.480 ,7,0,0.,12.0,0.,12.0,0.,12.0,0.,12.0
1986-01-25 15:25:28.480 ,7,0,0.,12.0,0.,12.0,0.,12.0,0.,12.0
1986-01-25 15:25:40.480 ,7,1,0.,12.0,0.,12.0,0.,12.0,0.,12.0
1986-01-25 15:25:52.480 ,7,1,0.,12.0,0.,12.0,0.,12.0,0.,12.0
1986-01-25 15:26:04.480 ,7,0,0.,12.0,0.,12.0,0.,12.0,0.,12.0
1986-01-25 15:26:16.480 ,7,0,0.,12.0,0.,12.0,0.,12.0,0.,12.0
1986-01-25 15:26:28.480 ,6,1,0.,12.0,0.,12.0,0.,12.0,0.,12.0
1986-01-25 15:26:40.480 ,6,1,0.,12.0,0.,12.0,0.,12.0,0.,12.0
1986-01-25 15:26:52.480 ,6,0,0.,12.0,0.,12.0,0.,12.0,0.,12.0
1986-01-25 15:27:04.480 ,6,0,0.,12.0,0.,12.0,0.,12.0,0.,12.0
1986-01-25 15:27:16.480 ,5,1,0.,12.0,0.,12.0,0.,12.0,0.,12.0
1986-01-25 15:27:28.480 ,5,1,0.,12.0,0.,12.0,0.,12.0,0.,12.0
1986-01-25 15:27:40.480 ,5,0,0.,12.0,0.,12.0,0.,12.0,0.,12.0
1986-01-25 15:27:52.480 ,5,0,0.,12.0,0.,12.0,0.,12.0,0.,12.0
1986-01-25 15:28:04.480 ,4,1,0.,12.0,0.,12.0,0.,12.0,0.,12.0
1986-01-25 15:28:16.480 ,4,1,0.,12.0,0.,12.0,0.,12.0,0.,12.0
1986-01-25 15:28:28.480 ,4,0,0.,12.0,0.,12.0,0.,12.0,0.,12.0
1986-01-25 15:28:40.480 ,4,0,0.,12.0,0.,12.0,0.,12.0,0.,12.0
1986-01-25 15:28:52.480 ,3,1,0.,12.0,0.,12.0,0.,12.0,0.,12.0
1986-01-25 15:29:04.480 ,3,1,0.,12.0,0.,12.0,0.,12.0,0.,12.0
1986-01-25 15:29:16.480 ,3,0,0.,12.0,0.,12.0,0.,12.0,0.,12.0
1986-01-25 15:29:28.480 ,3,0,0.,12.0,0.,12.0,0.,12.0,0.,12.0
1986-01-25 15:29:40.480 ,2,1,0.,12.0,0.,12.0,0.,12.0,0.,12.0
1986-01-25 15:29:52.480 ,2,1,0.,12.0,0.,12.0,0.,12.0,0.,12.0
1986-01-25 15:30:04.480 ,2,0,0.,12.0,0.,12.0,0.,12.0,0.,12.0
1986-01-25 15:30:16.480 ,2,0,0.,12.0,0.,12.0,0.,12.0,0.,12.0
1986-01-25 15:30:28.480 ,1,1,0.,12.0,0.,12.0,0.,12.0,0.,12.0
1986-01-25 15:30:40.480 ,1,1,0.,12.0,0.,12.0,0.,12.0,0.,12.0
1986-01-25 15:30:52.480 ,1,0,0.,12.0,0.,12.0,0.,12.0,0.,12.0
1986-01-25 15:31:04.480 ,1,0,0.,12.0,0.,12.0,0.,12.0,0.,12.0
1986-01-25 15:31:16.480 ,0,1,0.,12.0,0.,12.0,0.,12.0,0.,12.0
1986-01-25 15:31:28.480 ,0,1,0.,12.0,0.,12.0,0.,12.0,0.,12.0
1986-01-25 15:31:40.480 ,0,0,0.,12.0,0.,12.0,0.,12.0,0.,12.0
1986-01-25 15:31:52.480 ,0,0,0.,12.0,0.,12.0,0.,12.0,0.,12.0
1986-01-25 15:32:04.480 ,0,1,0.,12.0,0.,12.0,0.,12.0,0.,12.0
1986-01-25 15:32:16.480 ,0,1,0.,12.0,0.,12.0,0.,12.0,0.,12.0
1986-01-25 15:32:28.480 ,0,0,0.,12.0,0.,12.0,0.,12.0,0.,12.0
1986-01-25 15:32:40.480 ,0,0,0.,12.0,0.,12.0,0.,12.0,0.,12.0
1986-01-25 15:32:52.480 ,1,1,0.,12.0,0.,12.0,0.,12.0,0.,12.0
1986-01-25 15:33:04.480 ,1,1,0.,12.0,0.,12.0,0.,12.0,0.,12.0
1986-01-25 15:33:16.480 ,1,0,0.,12.0,0.,12.0,0.,12.0,0.,12.0
1986-01-25 15:33:28.480 ,1,0,0.,12.0,0.,12.0,0.,12.0,0.,12.0
1986-01-25 15:33:40.480 ,2,1,0.,12.0,0.,12.0,0.,12.0,0.,12.0
1986-01-25 15:33:52.480 ,2,1,0.,12.0,0.,12.0,0.,12.0,0.,12.0
1986-01-25 15:34:04.480 ,2,0,0.,12.0,0.,12.0,0.,12.0,0.,12.0
1986-01-25 15:34:16.480 ,2,0,0.,12.0,0.,12.0,0.,12.0,0.,12.0
1986-01-25 15:34:28.480 ,3,1,0.,12.0,0.,12.0,0.,12.0,0.,12.0
1986-01-25 15:34:40.480 ,3,1,0.,12.0,0.,12.0,0.,12.0,0.,12.0
1986-01-25 15:34:52.480 ,3,0,0.,12.0,0.,12.0,0.,12.0,0.,12.0
1986-01-25 15:35:04.480 ,3,0,0.,12.0,0.,12.0,0.,12.0,0.,12.0
1986-01-25 15:35:16.480 ,4,1,0.,12.0,0.,12.0,0.,12.0,0.,12.0
1986-01-25 15:35:28.480 ,4,1,0.,12.0,0.,12.0,0.,12.0,0.,12.0
1986-01-25 15:35:40.480 ,4,0,0.,12.0,0.,12.0,0.,12.0,0.,12.0
1986-01-25 15:35:52.480 ,4,0,0.,12.0,0.,12.0,0.,12.0,0.,12.0
1986-01-25 15:36:04.480 ,5,1,0.,12.0,0.,12.0,0.,12.0,0.,12.0
1986-01-25 15:36:16.480 ,5,1,0.,12.0,0.,12.0,0.,12.0,0.,12.0
1986-01-25 15:36:28.480 ,5,0,0.,12.0,0.,12.0,0.,12.0,0.,12.0
1986-01-25 15:36:40.480 ,5,0,0.,12.0,0.,12.0,0.,12.0,0.,12.0
1986-01-25 15:36:52.480 ,6,1,0.,12.0,0.,12.0,0.,12.0,0.,12.0
1986-01-25 15:37:04.480 ,6,1,0.,12.0,0.,12.0,0.,12.0,0.,12.0
1986-01-25 15:37:16.480 ,6,0,0.,12.0,0.,12.0,0.,12.0,0.,12.0
1986-01-25 15:37:28.480 ,6,0,0.,12.0,0.,12.0,0.,12.0,0.,12.0
1986-01-25 15:37:40.480 ,7,1,0.,12.0,0.,12.0,0.,12.0,0.,12.0
1986-01-25 15:37:52.480 ,7,1,0.,12.0,0.,12.0,0.,12.0,0.,12.0
1986-01-25 15:38:04.480 ,7,0,0.,12.0,0.,12.0,0.,12.0,0.,12.0
1986-01-25 15:38:16.480 ,7,0,0.,12.0,0.,12.0,0.,12.0,0.,12.0
1986-01-25 15:38:28.480 ,7,1,0.,12.0,0.,12.0,0.,12.0,0.,12.0
1986-01-25 15:38:40.480 ,7,1,0.,12.0,0.,12.0,0.,12.0,0.,12.0
1986-01-25 15:38:52.480 ,7,0,0.,12.0,0.,12.0,0.,12.0,0.,12.0
1986-01-25 15:39:04.480 ,7,0,0.,12.0,0.,12.0,0.,12.0,0.,12.0
1986-01-25 15:39:16.480 ,6,1,0.,12.0,0.,12.0,0.,12.0,0.,12.0
1986-01-25 15:39:28.480 ,6,1,0.,12.0,0.,12.0,0.,12.0,0.,12.0
1986-01-25 15:39:40.480 ,6,0,0.,12.0,0.,12.0,0.,12.0,0.,12.0
1986-01-25 15:39:52.480 ,6,0,0.,12.0,0.,12.0,0.,12.0,0.,12.0
1986-01-25 15:40:04.480 ,5,1,0.,12.0,0.,12.0,0.,12.0,0.,12.0
1986-01-25 15:40:16.480 ,5,1,0.,12.0,0.,12.0,0.,12.0,0.,12.0
1986-01-25 15:40:28.480 ,5,0,0.,12.0,0.,12.0,0.,12.0,0.,12.0
1986-01-25 15:40:40.480 ,5,0,0.,12.0,0.,12.0,0.,12.0,0.,12.0
1986-01-25 15:40:52.480 ,4,1,0.,12.0,0.,12.0,0.,12.0,0.,12.0
1986-01-25 15:41:04.480 ,4,1,0.,12.0,0.,12.0,0.,12.0,0.,12.0
1986-01-25 15:41:16.480 ,4,0,0.,12.0,0.,12.0,0.,12.0,0.,12.0
1986-01-25 15:41:28.480 ,4,0,0.,12.0,0.,12.0,0.,12.0,0.,12.0
1986-01-25 15:41:40.480 ,3,1,0.,12.0,0.,12.0,0.,12.0,0.,12.0
1986-01-25 15:41:52.480 ,3,1,0.,12.0,0.,12.0,0.,12.0,0.,12.0
1986-01-25 15:42:04.480 ,3,0,0.,12.0,0.,12.0,0.,12.0,0.,12.0
1986-01-25 15:42:16.480 ,3,0,0.,12.0,0.,12.0,0.,12.0,0.,12.0
1986-01-25 15:42:28.480 ,2,1,0.,12.0,0.,12.0,0.,12.0,0.,12.0
1986-01-25 15:42:40.480 ,2,1,0.,12.0,0.,12.0,0.,12.0,0.,12.0
1986-01-25 15:42:52.480 ,2,0,0.,12.0,0.,12.0,0.,12.0,0.,12.0
1986-01-25 15:43:04.480 ,2,0,0.,12.0,0.,12.0,0.,12.0,0.,12.0
1986-01-25 15:43:16.480 ,1,1,0.,12.0,0.,12.0,0.,12.0,0.,12.0
1986-01-25 15:43:28.480 ,1,1,0.,12.0,0.,12.0,0.,12.0,0.,12.0
1986-01-25 15:43:40.480 ,1,0,0.,12.0,0.,12.0,0.,12.0,0.,12.0
1986-01-25 15:43:52.480 ,1,0,0.,12.0,0.,12.0,0.,12.0,0.,12.0
1986-01-25 15:44:04.480 ,0,1,0.,12.0,0.,12.0,0.,12.0,0.,12.0
1986-01-25 15:44:16.480 ,0,1,0.,12.0,0.,12.0,0.,12.0,0.,12.0
1986-01-25 15:44:28.480 ,0,0,0.,12.0,0.,12.0,0.,12.0,0.,12.0
1986-01-25 15:44:40.480 ,0,0,0.,12.0,0.,12.0,0.,12.0,0.,12.0
1986-01-25 15:44:52.480 ,0,1,0.,12.0,0.,12.0,0.,12.0,0.,12.0
1986-01-25 15:45:04.480 ,0,1,0.,12.0,0.,12.0,0.,12.0,0.,12.0
1986-01-25 15:45:16.480 ,0,0,0.,12.0,0.,12.0,0.,12.0,0.,12.0
1986-01-25 15:45:28.480 ,0,0,0.,12.0,0.,12.0,0.,12.0,0.,12.0
1986-01-25 15:45:40.480 ,1,1,0.,12.0,0.,12.0,0.,12.0,0.,12.0
1986-01-25 15:45:52.480 ,1,1,0.,12.0,0.,12.0,0.,12.0,0.,12.0
1986-01-25 15:46:04.480 ,1,0,0.,12.0,0.,12.0,0.,12.0,0.,12.0
1986-01-25 15:46:16.480 ,1,0,0.,12.0,0.,12.0,0.,12.0,0.,12.0
1986-01-25 15:46:28.480 ,2,1,0.,12.0,0.,12.0,0.,12.0,0.,12.0
1986-01-25 15:46:40.480 ,2,1,0.,12.0,0.,12.0,0.,12.0,0.,12.0
1986-01-25 15:46:52.480 ,2,0,0.,12.0,0.,12.0,0.,12.0,0.,12.0
1986-01-25 15:47:04.480 ,2,0,0.,12.0,0.,12.0,0.,12.0,0.,12.0
1986-01-25 15:47:16.480 ,3,1,0.,12.0,0.,12.0,0.,12.0,0.,12.0
1986-01-25 15:47:28.480 ,3,1,0.,12.0,0.,12.0,0.,12.0,0.,12.0
1986-01-25 15:47:40.480 ,3,0,0.,12.0,0.,12.0,0.,12.0,0.,12.0
1986-01-25 15:47:52.480 ,3,0,0.,12.0,0.,12.0,0.,12.0,0.,12.0
1986-01-25 15:48:04.480 ,4,1,0.,12.0,0.,12.0,0.,12.0,0.,12.0
1986-01-25 15:48:16.480 ,4,1,0.,12.0,0.,12.0,0.,12.0,0.,12.0
1986-01-25 15:48:28.480 ,4,0,0.,12.0,0.,12.0,0.,12.0,0.,12.0
1986-01-25 15:48:40.480 ,4,0,0.,12.0,0.,12.0,0.,12.0,0.,12.0
1986-01-25 15:48:52.480 ,5,1,0.,12.0,0.,12.0,0.,12.0,0.,12.0
1986-01-25 15:49:04.480 ,5,1,0.,12.0,0.,12.0,0.,12.0,0.,12.0
1986-01-25 15:49:16.480 ,5,0,0.,12.0,0.,12.0,0.,12.0,0.,12.0
1986-01-25 15:49:28.480 ,5,0,0.,12.0,0.,12.0,0.,12.0,0.,12.0
1986-01-25 15:49:40.480 ,6,1,0.,12.0,0.,12.0,0.,12.0,0.,12.0
1986-01-25 15:49:52.480 ,6,1,0.,12.0,0.,12.0,0.,12.0,0.,12.0
1986-01-25 15:50:04.480 ,6,0,0.,12.0,0.,12.0,0.,12.0,0.,12.0
1986-01-25 15:50:16.480 ,6,0,0.,12.0,0.,12.0,0.,12.0,0.,12.0
1986-01-25 15:50:28.480 ,7,1,0.,12.0,0.,12.0,0.,12.0,0.,12.0
1986-01-25 15:50:40.480 ,7,1,0.,12.0,0.,12.0,0.,12.0,0.,12.0
1986-01-25 15:50:52.480 ,7,0,0.,12.0,0.,12.0,0.,12.0,0.,12.0
1986-01-25 15:51:04.480 ,7,0,0.,12.0,0.,12.0,0.,12.0,0.,12.0
1986-01-25 15:51:16.480 ,7,1,0.,12.0,0.,12.0,0.,12.0,0.,12.0
1986-01-25 15:51:28.480 ,7,1,0.,12.0,0.,12.0,0.,12.0,0.,12.0
1986-01-25 15:51:40.480 ,7,0,0.,12.0,0.,12.0,0.,12.0,0.,12.0
1986-01-25 15:51:52.480 ,7,0,0.,12.0,0.,12.0,0.,12.0,0.,12.0
1986-01-25 15:52:04.480 ,6,1,0.,12.0,0.,12.0,0.,12.0,0.,12.0
1986-01-25 15:52:16.480 ,6,1,0.,12.0,0.,12.0,0.,12.0,0.,12.0
1986-01-25 15:52:28.480 ,6,0,0.,12.0,0.,12.0,0.,12.0,0.,12.0
1986-01-25 15:52:40.480 ,6,0,0.,12.0,0.,12.0,0.,12.0,0.,12.0
1986-01-25 15:52:52.480 ,5,1,0.,12.0,0.,12.0,0.,12.0,0.,12.0
1986-01-25 15:53:04.480 ,5,1,0.,12.0,0.,12.0,0.,12.0,0.,12.0
1986-01-25 15:53:16.480 ,5,0,0.,12.0,0.,12.0,0.,12.0,0.,12.0
1986-01-25 15:53:28.480 ,5,0,0.,12.0,0.,12.0,0.,12.0,0.,12.0
1986-01-25 15:53:40.480 ,4,1,0.,12.0,0.,12.0,0.,12.0,0.,12.0
1986-01-25 15:53:52.480 ,4,1,0.,12.0,0.,12.0,0.,12.0,0.,12.0
1986-01-25 15:54:04.480 ,4,0,0.,12.0,0.,12.0,0.,12.0,0.,12.0
1986-01-25 15:54:16.480 ,4,0,0.,12.0,0.,12.0,0.,12.0,0.,12.0
1986-01-25 15:54:28.480 ,3,1,0.,12.0,0.,12.0,0.,12.0,0.,12.0
1986-01-25 15:54:40.480 ,3,1,0.,12.0,0.,12.0,0.,12.0,0.,12.0
1986-01-25 15:54:52.480 ,3,0,0.,12.0,0.,12.0,0.,12.0,0.,12.0
1986-01-25 15:55:04.480 ,3,0,0.,12.0,0.,12.0,0.,12.0,0.,12.0
1986-01-25 15:55:16.480 ,2,1,0.,12.0,0.,12.0,0.,12.0,0.,12.0
1986-01-25 15:55:28.480 ,2,1,0.,12.0,0.,12.0,0.,12.0,0.,12.0
1986-01-25 15:55:40.480 ,2,0,0.,12.0,0.,12.0,0.,12.0,0.,12.0
1986-01-25 15:55:52.480 ,2,0,0.,12.0,0.,12.0,0.,12.0,0.,12.0
1986-01-25 15:56:04.480 ,1,1,0.,12.0,0.,12.0,0.,12.0,0.,12.0
1986-01-25 15:56:16.480 ,1,1,0.,12.0,0.,12.0,0.,12.0,0.,12.0
1986-01-25 15:56:28.480 ,1,0,0.,12.0,0.,12.0,0.,12.0,0.,12.0
1986-01-25 15:56:40.480 ,1,0,0.,12.0,0.,12.0,0.,12.0,0.,12.0
1986-01-25 15:56:52.480 ,0,1,0.,12.0,0.,12.0,0.,12.0,0.,12.0
1986-01-25 15:57:04.480 ,0,1,0.,12.0,0.,12.0,0.,12.0,0.,12.0
1986-01-25 15:57:16.480 ,0,0,0.,12.0,0.,12.0,0.,12.0,0.,12.0
1986-01-25 15:57:28.480 ,0,0,0.,12.0,0.,12.0,0.,12.0,0.,12.0
1986-01-25 15:57:40.480 ,0,1,0.,12.0,0.,12.0,0.,12.0,0.,12.0
1986-01-25 15:57:52.480 ,0,1,0.,12.0,0.,12.0,0.,12.0,0.,12.0
1986-01-25 15:58:04.480 ,0,0,0.,12.0,0.,12.0,0.,12.0,0.,12.0
1986-01-25 15:58:16.480 ,0,0,0.,12.0,0.,12.0,0.,12.0,0.,12.0
1986-01-25 15:58:28.480 ,1,1,0.,12.0,0.,12.0,0.,12.0,0.,12.0
1986-01-25 15:58:40.480 ,1,1,0.,12.0,0.,12.0,0.,12.0,0.,12.0
1986-01-25 15:58:52.480 ,1,0,0.,12.0,0.,12.0,0.,12.0,0.,12.0
1986-01-25 15:59:04.480 ,1,0,0.,12.0,0.,12.0,0.,12.0,0.,12.0
1986-01-25 15:59:16.480 ,2,1,0.,12.0,0.,12.0,0.,12.0,0.,12.0
1986-01-25 15:59:28.480 ,2,1,0.,12.0,0.,12.0,0.,12.0,0.,12.0
1986-01-25 15:59:40.480 ,2,0,0.,12.0,0.,12.0,0.,12.0,0.,12.0
1986-01-25 15:59:52.480 ,2,0,0.,12.0,0.,12.0,0.,12.0,0.,12.0
1986-01-25 16:00:04.480 ,3,1,0.,12.0,0.,12.0,0.,12.0,0.,12.0
1986-01-25 16:00:16.480 ,3,1,0.,12.0,0.,12.0,0.,12.0,0.,12.0
1986-01-25 16:00:28.480 ,3,0,0.,12.0,0.,12.0,0.,12.0,0.,12.0
1986-01-25 16:00:40.480 ,3,0,0.,12.0,0.,12.0,0.,12.0,0.,12.0
1986-01-25 16:00:52.480 ,4,1,0.,12.0,0.,12.0,0.,12.0,0.,12.0
1986-01-25 16:01:04.480 ,4,1,0.,12.0,0.,12.0,0.,12.0,0.,12.0
1986-01-25 16:01:16.470 ,4,0,0.,12.0,0.,12.0,0.,12.0,0.,12.0
1986-01-25 16:01:28.480 ,4,0,0.,12.0,0.,12.0,0.,12.0,0.,12.0
1986-01-25 16:01:40.470 ,5,1,0.,12.0,0.,12.0,0.,12.0,0.,12.0
1986-01-25 16:01:52.480 ,5,1,0.,12.0,0.,12.0,0.,12.0,0.,12.0
1986-01-25 16:02:04.480 ,5,0,0.,12.0,0.,12.0,0.,12.0,0.,12.0
1986-01-25 16:02:16.480 ,5,0,0.,12.0,0.,12.0,0.,12.0,0.,12.0
1986-01-25 16:02:28.470 ,6,1,0.,12.0,0.,12.0,0.,12.0,0.,12.0
1986-01-25 16:02:40.470 ,6,1,0.,12.0,0.,12.0,0.,12.0,0.,12.0
1986-01-25 16:02:52.470 ,6,0,0.,12.0,0.,12.0,0.,12.0,0.,12.0
1986-01-25 16:03:04.470 ,6,0,0.,12.0,0.,12.0,0.,12.0,0.,12.0
1986-01-25 16:03:16.470 ,7,1,0.,12.0,0.,12.0,0.,12.0,0.,12.0
1986-01-25 16:03:28.470 ,7,1,0.,12.0,0.,12.0,0.,12.0,0.,12.0
1986-01-25 16:03:40.470 ,0,0,0.,12.0,0.,12.0,0.,12.0,0.,12.0
1986-01-25 16:03:52.470 ,0,0,0.,12.0,0.,12.0,0.,12.0,0.,12.0
1986-01-25 16:04:38.670 ,0,0,,0,,0,,0,,0
1986-01-25 16:04:50.670 ,0,0,0.,12.0,0.,12.0,0.,12.0,0.,12.0
1986-01-25 16:05:44.070 ,0,0,0.,12.0,0.,12.0,0.,12.0,0.,12.0
1986-01-25 16:05:56.070 ,0,0,0.,12.0,0.,12.0,0.,12.0,0.,12.0
1986-01-25 16:06:04.470 ,0,0,0.,12.0,0.,12.0,0.,12.0,0.,12.0
1986-01-25 16:06:16.470 ,0,0,0.,12.0,0.,12.0,0.,12.0,0.,12.0
1986-01-25 16:06:28.470 ,4,1,0.,12.0,0.,12.0,0.,12.0,0.,12.0
1986-01-25 16:06:40.470 ,4,1,0.,12.0,0.,12.0,0.,12.0,0.,12.0
1986-01-25 16:06:52.470 ,4,0,0.,12.0,0.,12.0,0.,12.0,0.,12.0
1986-01-25 16:07:04.470 ,4,0,0.,12.0,0.,12.0,0.,12.0,0.,12.0
1986-01-25 16:07:16.470 ,3,1,0.,12.0,0.,12.0,0.,12.0,0.,12.0
1986-01-25 16:07:28.470 ,3,1,0.,12.0,0.,12.0,0.,12.0,0.,12.0
1986-01-25 16:07:40.470 ,3,0,0.,12.0,0.,12.0,0.,12.0,0.,12.0
1986-01-25 16:07:52.470 ,3,0,0.,12.0,0.,12.0,0.,12.0,0.,12.0
1986-01-25 16:08:04.470 ,2,1,0.,12.0,0.,12.0,0.,12.0,0.,12.0
1986-01-25 16:08:16.470 ,2,1,0.,12.0,0.,12.0,0.,12.0,0.,12.0
1986-01-25 16:08:28.470 ,2,0,0.,12.0,0.,12.0,0.,12.0,0.,12.0
1986-01-25 16:08:40.470 ,2,0,0.,12.0,0.,12.0,0.,12.0,0.,12.0
1986-01-25 16:08:52.470 ,1,1,0.,12.0,0.,12.0,0.,12.0,0.,12.0
1986-01-25 16:09:04.470 ,1,1,0.,12.0,0.,12.0,0.,12.0,0.,12.0
1986-01-25 16:09:16.470 ,1,0,0.,12.0,0.,12.0,0.,12.0,0.,12.0
1986-01-25 16:09:28.470 ,1,0,0.,12.0,0.,12.0,0.,12.0,0.,12.0
1986-01-25 16:09:40.470 ,0,1,0.,12.0,0.,12.0,0.,12.0,0.,12.0
1986-01-25 16:09:52.470 ,0,1,0.,12.0,0.,12.0,0.,12.0,0.,12.0
1986-01-25 16:10:04.470 ,0,0,0.,12.0,0.,12.0,0.,12.0,0.,12.0
1986-01-25 16:10:16.470 ,0,0,0.,12.0,0.,12.0,0.,12.0,0.,12.0
1986-01-25 16:10:28.470 ,0,1,0.,12.0,0.,12.0,0.,12.0,0.,12.0
1986-01-25 16:10:40.470 ,0,1,0.,12.0,0.,12.0,0.,12.0,0.,12.0
1986-01-25 16:10:52.470 ,0,0,0.,12.0,0.,12.0,0.,12.0,0.,12.0
1986-01-25 16:11:04.470 ,0,0,0.,12.0,0.,12.0,0.,12.0,0.,12.0
1986-01-25 16:11:16.470 ,1,1,0.,12.0,0.,12.0,0.,12.0,0.,12.0
1986-01-25 16:11:28.470 ,1,1,0.,12.0,0.,12.0,0.,12.0,0.,12.0
1986-01-25 16:11:40.470 ,1,0,0.,12.0,0.,12.0,0.,12.0,0.,12.0
1986-01-25 16:11:52.470 ,1,0,0.,12.0,0.,12.0,0.,12.0,0.,12.0
1986-01-25 16:12:04.470 ,2,1,0.,12.0,0.,12.0,0.,12.0,0.,12.0
1986-01-25 16:12:16.470 ,2,1,0.,12.0,0.,12.0,0.,12.0,0.,12.0
1986-01-25 16:12:28.470 ,2,0,0.,12.0,0.,12.0,0.,12.0,0.,12.0
1986-01-25 16:12:40.470 ,2,0,0.,12.0,0.,12.0,0.,12.0,0.,12.0
1986-01-25 16:12:52.470 ,3,1,0.,12.0,0.,12.0,0.,12.0,0.,12.0
1986-01-25 16:13:04.470 ,3,1,0.,12.0,0.,12.0,0.,12.0,0.,12.0
1986-01-25 16:13:16.470 ,0,0,0.,12.0,0.,12.0,0.,12.0,0.,12.0
1986-01-25 16:13:28.470 ,0,0,,0,,0,,0,,0
1986-01-25 16:13:42.870 ,0,0,0.,12.0,0.,12.0,0.,12.0,0.,12.0
1986-01-25 16:13:54.870 ,0,0,,0,,0,,0,,0
1986-01-25 16:14:04.470 ,0,0,0.,12.0,0.,12.0,0.,12.0,0.,12.0
1986-01-25 16:14:16.470 ,0,0,0.,12.0,0.,12.0,0.,12.0,0.,12.0
1986-01-25 16:14:28.470 ,5,1,,0,,0,,0,,0
1986-01-25 16:14:40.470 ,5,1,0.,12.0,0.,12.0,0.,12.0,0.,12.0
1986-01-25 16:14:52.470 ,5,0,0.,12.0,0.,12.0,0.,12.0,0.,12.0
1986-01-25 16:15:04.470 ,5,0,0.,12.0,0.,12.0,0.,12.0,0.,12.0
1986-01-25 16:15:16.470 ,6,1,0.,12.0,0.,12.0,0.,12.0,0.,12.0
1986-01-25 16:15:28.470 ,6,1,0.,12.0,0.,12.0,0.,12.0,0.,12.0
1986-01-25 16:15:40.470 ,0,0,0.,12.0,0.,12.0,0.,12.0,0.,12.0
1986-01-25 16:15:52.470 ,0,0,,0,,0,,0,,0
1986-01-25 16:16:07.470 ,0,0,0.,12.0,0.,12.0,0.,12.0,0.,12.0
1986-01-25 16:16:19.470 ,0,0,,0,,0,,0,,0
1986-01-25 16:16:28.470 ,0,0,,0,,0,,0,,0
1986-01-25 16:16:40.470 ,0,0,0.,12.0,0.,12.0,0.,12.0,0.,12.0
1986-01-25 16:16:52.470 ,7,1,0.,12.0,0.,12.0,0.,12.0,0.,12.0
1986-01-25 16:17:04.470 ,7,1,0.,12.0,0.,12.0,0.,12.0,0.,12.0
1986-01-25 16:17:16.470 ,7,0,0.,12.0,0.,12.0,0.,12.0,0.,12.0
1986-01-25 16:17:28.470 ,7,0,0.,12.0,0.,12.0,0.,12.0,0.,12.0
1986-01-25 16:17:40.470 ,6,1,0.,12.0,0.,12.0,0.,12.0,0.,12.0
1986-01-25 16:17:52.470 ,6,1,0.,12.0,0.,12.0,0.,12.0,0.,12.0
1986-01-25 16:18:04.470 ,6,0,0.,12.0,0.,12.0,0.,12.0,0.,12.0
1986-01-25 16:18:16.470 ,6,0,0.,12.0,0.,12.0,0.,12.0,0.,12.0
1986-01-25 16:18:28.470 ,5,1,0.,12.0,0.,12.0,0.,12.0,0.,12.0
1986-01-25 16:18:40.470 ,5,1,0.,12.0,0.,12.0,0.,12.0,0.,12.0
1986-01-25 16:18:52.470 ,5,0,0.,12.0,0.,12.0,0.,12.0,0.,12.0
1986-01-25 16:19:04.470 ,5,0,0.,12.0,0.,12.0,0.,12.0,0.,12.0